This demonstration page uses our WeatherBlox Daily Observations layout. Learn more.

38.89511, -77.03637

Hourly Observations for June 6, 2015

Temp ( °F °C ) Dew Point ( °F °C ) Humidity (%) Winds ( mph kmh ) Pressure ( in mb ) Visibility ( mi km ) Precip ( " mm )
12:52 am 00:52 Mostly Cloudy 66 19 63 17 88 88 W 5 7 29.91 1013 10 16.09344 0 0
1:52 am 01:52 Mostly Cloudy 66 19 63 17 88 88 Calm 29.91 1013 10 16.09344 0 0
2:52 am 02:52 Mostly Cloudy 66 19 63 17 88 88 SSW 5 7 29.91 1013 10 16.09344 0 0
3:52 am 03:52 Cloudy 64 18 61 16 88 88 SW 3 6 29.91 1013 10 16.09344 0 0
4:52 am 04:52 Mostly Cloudy 64 18 63 17 94 94 SSW 3 6 29.88 1012 10 16.09344 0 0
5:52 am 05:52 Mostly Cloudy 64 18 61 16 88 88 SW 3 6 29.88 1012 10 16.09344 0 0
6:52 am 06:52 Mostly Cloudy 66 19 63 17 88 88 WSW 3 6 29.91 1013 10 16.09344 0 0
7:52 am 07:52 Mostly Cloudy 70 21 63 17 78 78 Calm 29.91 1013 10 16.09344 0 0
8:52 am 08:52 Mostly Cloudy 70 21 63 17 78 78 NNW 9 15 29.94 1014 10 16.09344 0 0
9:52 am 09:52 Mostly Cloudy 75 24 64 18 69 69 N 13 20 29.94 1014 10 16.09344 0 0
10:52 am 10:52 Mostly Cloudy 79 26 64 18 61 61 N 13 20 29.94 1014 10 16.09344 0 0
11:52 am 11:52 Mostly Cloudy 81 27 64 18 58 58 N 13 20 29.97 1015 10 16.09344 0 0
12:52 pm 12:52 Mostly Cloudy 81 27 64 18 58 58 NNW 14 22 29.94 1014 10 16.09344 0 0
1:52 pm 13:52 Mostly Cloudy 82 28 64 18 55 55 N 16 26 29.94 1014 10 16.09344 0 0
2:52 pm 14:52 Mostly Cloudy 82 28 63 17 51 51 N 20 31 29.94 1014 10 16.09344 0 0
3:52 pm 15:52 Mostly Cloudy 84 29 63 17 48 48 N 14 22 29.94 1014 10 16.09344 0 0
4:52 pm 16:52 Mostly Cloudy 82 28 63 17 51 51 N 13 20 29.97 1015 10 16.09344 0 0
5:52 pm 17:52 Partly Cloudy 81 27 63 17 54 54 N 13 20 29.97 1015 10 16.09344 0 0
6:52 pm 18:52 Partly Cloudy 81 27 61 16 51 51 N 12 19 30 1016 10 16.09344 0 0
7:52 pm 19:52 Partly Cloudy 79 26 61 16 54 54 NNE 15 24 30 1016 10 16.09344 0 0
8:52 pm 20:52 Partly Cloudy 75 24 61 16 61 61 N 7 11 30 1016 10 16.09344 0 0
9:52 pm 21:52 Mostly Cloudy 73 23 63 17 69 69 Calm 30.03 1017 10 16.09344 0 0
10:52 pm 22:52 Partly Cloudy 72 22 64 18 78 78 S 9 15 30.06 1018 10 16.09344 0 0
11:52 pm 23:52 Partly Cloudy 72 22 64 18 78 78 S 9 15 30.06 1018 10 16.09344 0 0

Powered by AerisWeather